Flag for Laos Weather past 2 weeks in Vientiane, Laos

Now
86 °F

Fog.


Feels Like: 93 °F
Forecast: 84 / 107 °F
Wind: 2 mph from West

Location: Vientiane Airport


UV Index: 10 (Very high)

Visibility: 2 mi


Pressure: 29.71 "Hg

Humidity: 66%

Dew point: 73 °F

Location of VientianeLocation

Historic Weather in Vientiane

°F

Vientiane temperature yesterday

Maximum temperature yesterday: 100 °F (at 3:00 PM)
Minimum temperature yesterday: 81 °F (at 6:00 AM)
Average temperature yesterday: 91 °F

Past Weeks' High & Low Weather Summary

 TemperatureHumidityPressure
High100 °F (Apr 19, 3:00 PM)100% (Apr 16, 7:00 AM)29.95 "Hg (Apr 16, 7:00 AM)
Low70 °F (Apr 7, 7:00 AM)44% (Apr 18, 3:00 PM)29.62 "Hg (Apr 20, 4:00 PM)
Average86 °F69%29.78 "Hg
* Reported Apr 5 10:00 PM — Apr 20 10:00 PM, Vientiane, Weather by CustomWeather, © 2014

Note: Actual official high and low records may vary slightly from our data, if they occured in-between our weather recording intervals... More about our weather records

Advertising

Historic Weather Conditions — Data for Previous 24 hours

 ConditionsComfort  
Time TempWeatherWind HumidityBarometerVisibility
10:00 PM
Apr 20
86 °FFog.2 mph66%29.71 "Hg2 mi
9:00 PM88 °FFog.7 mph62%29.71 "Hg2 mi
8:30 PM91 °FFog.2 mph63%29.65 "Hg2 mi
8:00 PM91 °FFog.2 mph63%29.65 "Hg2 mi
7:00 PM93 °FFog.2 mph59%29.65 "Hg3 mi
6:30 PM95 °FFog.2 mph56%29.62 "Hg3 mi
6:00 PM95 °FFog.2 mph56%29.62 "Hg3 mi
5:00 PM93 °FClear.2 mph59%29.62 "Hg4 mi
4:00 PM99 °FClear.2 mph50%29.62 "Hg4 mi
3:00 PM99 °FPassing clouds.2 mph44%29.65 "Hg4 mi
2:00 PM99 °FPassing clouds.2 mph47%29.71 "Hg4 mi
1:30 PM97 °FPartly sunny.2 mph47%29.74 "Hg4 mi
1:00 PM97 °FPartly sunny.2 mph47%29.74 "Hg4 mi
11:00 AM93 °FPartly sunny.2 mph59%29.77 "Hg3 mi
10:30 AM90 °FFog.2 mph67%29.80 "Hg3 mi
10:00 AM90 °FFog.2 mph67%29.80 "Hg3 mi
9:00 AM88 °FFog.2 mph70%29.77 "Hg2 mi
8:30 AM82 °FFog.2 mph84%29.77 "Hg2 mi
8:00 AM82 °FFog.2 mph84%29.77 "Hg2 mi
7:30 AM81 °FFog.2 mph89%29.74 "Hg2 mi
7:00 AM81 °FFog.2 mph89%29.74 "Hg2 mi
6:30 AM81 °FFog.2 mph89%29.71 "Hg2 mi
6:00 AM81 °FFog.2 mph89%29.71 "Hg2 mi
Weather by CustomWeather, © 2014

See weather overview